CST,Max TemperatureF,Mean TemperatureF,Min TemperatureF,Max Dew PointF,MeanDew PointF,Min DewpointF,Max Humidity, Mean Humidity, Min Humidity, Max Sea Level PressureIn, Mean Sea Level PressureIn, Min Sea Level PressureIn, Max VisibilityMiles, Mean VisibilityMiles, Min VisibilityMiles, Max Wind SpeedMPH, Mean Wind SpeedMPH, Max Gust SpeedMPH,PrecipitationIn, CloudCover, Events, WindDirDegrees
2011-11-1,55,48,41,39,32,28,66,54,47,30.01,29.89,29.83,10,10,10,18,6,22,0.00,3,,7
2011-11-2,48,42,33,34,29,25,70,57,40,30.27,30.20,30.08,10,10,10,18,9,24,0.00,2,,332
2011-11-3,51,38,24,30,23,16,100,64,24,30.33,30.27,30.21,10,10,10,6,2,,0.00,0,,284
2011-11-4,53,42,30,28,21,18,69,49,28,30.23,30.15,30.01,10,10,10,15,4,24,0.00,0,,153
2011-11-5,57,48,39,43,37,30,93,70,44,30.00,29.80,29.63,10,10,10,22,12,33,0.00,1,,150
2011-11-6,48,42,37,45,34,19,87,68,45,29.94,29.68,29.51,10,10,10,21,11,29,0.00,3,Rain,201
2011-11-7,46,37,28,27,22,18,75,54,43,30.22,30.12,29.97,10,10,10,16,7,22,0.00,0,,254
2011-11-8,46,36,26,32,26,19,100,74,34,30.22,30.18,30.14,10,10,10,6,1,,0.00,1,,28
2011-11-9,44,36,28,28,25,19,93,66,42,30.15,30.08,30.02,10,10,10,23,6,32,0.00,0,,305
2011-11-10,37,32,26,28,24,19,86,70,52,30.09,30.04,29.98,10,10,10,18,13,28,0.00,5,Rain,303
2011-11-11,51,40,30,27,21,16,75,50,30,29.91,29.67,29.57,10,10,10,12,5,,0.00,1,,191
2011-11-12,62,45,28,36,25,21,74,48,20,29.56,29.42,29.23,10,10,10,14,3,21,0.00,0,,163
2011-11-13,44,40,35,34,29,27,75,66,53,29.40,29.27,29.16,10,10,10,14,6,21,0.00,3,,270
2011-11-14,50,39,28,28,24,19,80,58,32,29.59,29.46,29.40,10,10,10,18,5,26,0.00,1,,248
2011-11-15,46,36,26,28,23,16,86,62,45,29.89,29.65,29.50,10,10,10,30,6,37,0.00,1,,266
2011-11-16,32,26,21,18,15,10,80,62,47,30.14,30.05,29.94,10,10,10,24,11,31,0.00,4,,279
2011-11-17,30,21,12,12,9,3,93,66,32,30.18,30.12,29.99,10,10,10,12,7,16,0.00,0,,268
2011-11-18,44,37,30,27,22,14,69,54,46,29.72,29.63,29.58,10,10,10,12,6,17,0.00,1,,156
2011-11-19,30,26,23,27,21,16,100,83,69,29.97,29.82,29.74,10,7,0,17,12,23,0.02,6,Snow,357
2011-11-20,19,12,6,14,10,5,100,85,68,30.37,30.29,30.18,10,10,10,12,4,,0.00,1,,322
2011-11-21,33,20,8,30,23,9,100,96,81,30.29,30.23,30.17,10,6,2,10,3,,0.00,6,,149
2011-11-22,37,34,32,36,33,32,100,94,93,30.18,30.09,30.02,7,5,4,8,5,,0.00,8,,129
2011-11-23,46,37,28,39,34,28,100,95,76,30.09,30.03,29.96,7,3,0,7,2,,0.00,2,Fog,174
2011-11-24,57,45,33,43,37,32,100,82,58,29.94,29.79,29.67,10,8,4,7,4,,0.00,0,,161
2011-11-25,48,39,30,46,38,30,100,91,76,29.68,29.64,29.61,10,9,5,9,2,,0.00,2,,133
2011-11-26,48,40,33,46,35,27,100,91,75,30.12,29.87,29.63,10,8,0,23,11,36,0.00,8,Fog-Rain,305
2011-11-27,33,30,28,27,25,23,86,78,69,30.23,30.18,30.12,10,10,10,20,14,28,0.00,8,,332
2011-11-28,44,32,21,30,23,21,100,76,39,30.19,30.07,30.01,10,10,10,12,3,,0.00,0,,211
2011-11-29,37,29,21,27,18,9,93,69,30,30.38,30.28,30.14,10,10,10,9,6,,0.00,0,,325
2011-11-30,39,30,21,21,16,10,68,55,45,30.05,29.93,29.86,10,10,10,7,2,,0.00,2,,34